Regional Weather Roundup
Issued by NWS

Home | Current Version | Previous Version | Text Only | Print | Product List | Glossary Off
Versions: 1 2 3 4 5 6 7 8 9 10 11 12 13 14 15 16 17 18 19 20 21 22 23 24 25 26 27 28 29 30 31 32 33 34 35 36 37 38 39 40 41 42 43 44 45 46 47 48 49 50

000
ASUS45 KBOU 270807
RWRCO

WEATHER ROUNDUP FOR COLORADO
NATIONAL WEATHER SERVICE DENVER/BOULDER CO
200 AM MDT TUE JUN 27 2017

NOTE: "FAIR" INDICATES FEW OR NO CLOUDS BELOW 12000 FEET WITH NO
SIGNIFICANT WEATHER AND/OR OBSTRUCTIONS TO VISIBILITY.

COZ001>005-013-030-031-270900-
...NORTHWEST COLORADO...

CITY           SKY/WX    TMP DP  RH WIND       PRES   REMARKS
CRAIG          FAIR      55  39  54 N7        30.07F
HAYDEN         FAIR      61  34  36 E10       30.09F
MEEKER         FAIR      59  35  40 NE8       30.10F
RABBIT EARS PA FAIR      55  27  33 SW7       30.42F
STEAMBOAT SPGS FAIR      53  37  52 E6        30.13F
WALDEN         FAIR      50  34  53 SE7       30.24F
$$

COZ006>008-011-270900-
...WEST CENTRAL VALLEYS...

CITY           SKY/WX    TMP DP  RH WIND       PRES   REMARKS
GRAND JUNCTION FAIR      78  28  16 SE9       29.95F
MONTROSE       FAIR      70  32  24 E7        30.06F
EAGLE          FAIR      57  30  35 CALM      30.18S
RIFLE          FAIR      63  30  28 SE7       30.05F
DELTA          FAIR      70  28  21 E12       30.01F
NUCLA          FAIR      72  30  21 E3        30.11S
$$

COZ017>023-064>068-270900-
...SOUTHWEST COLORADO...

CITY           SKY/WX    TMP DP  RH WIND       PRES   REMARKS
DURANGO        FAIR      53  37  54 NE10      30.23S
CORTEZ         FAIR      72  37  28 W9        30.12S
PAGOSA SPRINGS FAIR      55  37  49 CALM      30.34S
TELLURIDE      CLOUDY    62  30  30 CALM      30.38F
WOLF CREEK PAS MOCLDY    45  32  61 S18G24    30.63F
$$

COZ009-010-012-014-032>034-037-058>063-270900-
...CENTRAL COLORADO...

CITY           SKY/WX    TMP DP  RH WIND       PRES   REMARKS
ASPEN          FAIR      54  29  38 SW8       30.22F
BUENA VISTA    FAIR      51  36  55 CALM      30.32F
COPPER MTN     FAIR      54  34  47 S16       30.55F
BERTHOUD PASS  FAIR      43  30  61 W10       30.58F
COTTONWOOD PAS FAIR      57  32  38 SW6       30.43F
GUNNISON       FAIR      52  34  50 N14       30.27F
KREMMLING      NOT AVBL
LEADVILLE      FAIR      42  34  73 NE7       30.42F
MONARCH PASS   FAIR      46  30  53 S15       30.68F
SALIDA         FAIR      56  37  49 SW3       30.37S
SUNLIGHT       FAIR      52  18  25 S9        30.47F
WILKERSON PASS FAIR      46  32  57 SW9G16    30.54F
$$

COZ069>075-270900-
...SAN LUIS VALLEY/SANGRE DE CRISTO MOUNTAINS...

CITY           SKY/WX    TMP DP  RH WIND       PRES   REMARKS
ALAMOSA        FAIR      53  40  61 SE12      30.29F
DEL NORTE      FAIR      52  36  53 CALM      30.32F
LA VETA PASS   FAIR      46  32  57 S20       30.57F
SAGUACHE       FAIR      50  32  50 N5        30.33S
$$

COZ035-036-038>040-270900-
...NORTHERN COLORADO FRONT RANGE...

CITY           SKY/WX    TMP DP  RH WIND       PRES   REMARKS
DENVER INTL AP FAIR      67  42  40 SW18      30.07F
DMNS CITY PARK   N/A     65  45  48 SE7       30.07F
AURORA         PTCLDY    66  43  42 S20       30.09F
FRONT RANGE AP FAIR      68  41  37 S17G23    30.09F
ERIE MUNI ARPT FAIR      59  53  78 CALM      30.05F
BOULDER MUN AP FAIR      64  50  59 CALM      30.06F
CENTENNIAL     FAIR      64  45  49 S13       30.11F
BROOMFIELD     FAIR      63  50  63 W7        30.09F
FORT COLLINS   FAIR      62  55  77 NE8       30.06F
LONGMONT       FAIR      64  54  70 CALM      30.06F
$$

COZ041-046-047-076>085-087-088-270900-
...PIKES PEAK/PALMER DIVIDE AND SOUTHERN FOOTHILLS...

CITY           SKY/WX    TMP DP  RH WIND       PRES   REMARKS
COLO. SPRINGS  FAIR      59  45  59 E12       30.19F
A. F. ACADEMY  FAIR      50  45  84 N7        30.20F
SCHRIEVER AFB  FAIR      58  43  58 S10       30.20F
CHEYENNE MTN   FAIR      62  42  48 E6G16     30.17F
ELLICOTT       FAIR     N/A N/A N/A SW5       30.18F
FALCON           N/A     56  41  57 S8        30.24F
FORT CARSON    FAIR      56  43  63 SE6       30.16F
LIMON          FAIR      55  54  96 SE5       30.14F
MONUMENT HILL  FAIR      57  41  54 S14       30.23F
CANON CITY     CLEAR     61  46  59 W9        30.13F
WALSENBURG     FAIR      57  45  62 SW8       30.18F
TRINIDAD       FAIR      61  43  51 SW15      30.19F
$$

COZ042>045-048>051-090-091-270900-
...NORTHEAST COLORADO...

CITY           SKY/WX    TMP DP  RH WIND       PRES   REMARKS
GREELEY ARPT   FAIR      60  56  86 E8        30.05F
AKRON            N/A     60  58  92 SE18      30.10S
BURLINGTON     MOCLDY    60  58  92 SE14      30.09F
WRAY           FAIR      59  54  82 SE9       30.10F
YUMA           FAIR      55  48  76 SE12      30.09F
STERLING       FAIR      61  54  77 S8G21     30.06F
HOLYOKE        NOT AVBL
FORT MORGAN    FAIR      61  55  80 SE15      30.08F
$$

COZ086-089-092>099-270900-
...SOUTHEAST COLORADO...

CITY           SKY/WX    TMP DP  RH WIND       PRES   REMARKS
PUEBLO         FAIR      70  44  39 SW12      30.08F
LA JUNTA       FAIR      64  48  56 CALM      30.09R
LAMAR          FAIR      65  59  81 E6        30.03F
SPRINGFIELD      N/A     64  51  62 SW7       30.06F
$$



USA.gov is the U.S. government's official web portal to all federal, state and local government web resources and services.